This is the latest recevied weather packets stored in our database for station/object DM4XI-13. If no packets are shown the sender has not sent any weather packets the latest 10 day(s).
| Time | Temp. | Humidity | Pressure | Rain* | Wind** | Luminosity | Snow |
|---|---|---|---|---|---|---|---|
| 1777617164 | 10.56° C | 47% | 1026.4 hPa | 0 mm | 0.89 m/s, 358° | 216 W/m² | - |
| 1777617104 | 10.56° C | 47% | 1026.3 hPa | 0 mm | 0.45 m/s, 293° | 214 W/m² | - |
| 1777617042 | 10° C | 46% | 1026.4 hPa | 0 mm | 0 m/s | 194 W/m² | - |
| 1777616981 | 10° C | 49% | 1026.3 hPa | 0 mm | 0 m/s | 208 W/m² | - |
| 1777616920 | 10° C | 49% | 1026.2 hPa | 0 mm | 0 m/s | 207 W/m² | - |
| 1777616859 | 10.56° C | 49% | 1026.2 hPa | 0 mm | 0.45 m/s, 0° | 204 W/m² | - |
| 1777616798 | 10.56° C | 49% | 1026.2 hPa | 0 mm | 0.45 m/s, 29° | 203 W/m² | - |
| 1777616737 | 10.56° C | 49% | 1026.4 hPa | 0 mm | 0.45 m/s, 61° | 200 W/m² | - |
| 1777616676 | 10.56° C | 49% | 1026.4 hPa | 0 mm | 0 m/s | 197 W/m² | - |
| 1777616615 | 10.56° C | 50% | 1026.4 hPa | 0 mm | 0 m/s | 195 W/m² | - |
| 1777616554 | 10.56° C | 49% | 1026.2 hPa | 0 mm | 0.45 m/s, 115° | 193 W/m² | - |
| 1777616493 | 10.56° C | 49% | 1026.3 hPa | 0 mm | 0 m/s | 191 W/m² | - |
| 1777616432 | 10.56° C | 48% | 1026.3 hPa | 0 mm | 0.45 m/s, 110° | 191 W/m² | - |
| 1777616371 | 10.56° C | 48% | 1026.3 hPa | 0 mm | 0.45 m/s, 32° | 186 W/m² | - |
| 1777616310 | 10.56° C | 49% | 1026.1 hPa | 0 mm | 0 m/s | 184 W/m² | - |
| 1777616249 | 10.56° C | 49% | 1026.2 hPa | 0 mm | 0 m/s | 181 W/m² | - |
| 1777616189 | 10.56° C | 49% | 1026.2 hPa | 0 mm | 0.45 m/s, 147° | 180 W/m² | - |
| 1777616127 | 10.56° C | 48% | 1026.1 hPa | 0 mm | 0.45 m/s, 120° | 178 W/m² | - |
| 1777616066 | 10° C | 48% | 1026.2 hPa | 0 mm | 0 m/s | 176 W/m² | - |
| 1777616005 | 10° C | 50% | 1026.1 hPa | 0 mm | 0 m/s | 173 W/m² | - |
| 1777615944 | 10° C | 50% | 1026.1 hPa | 0 mm | 0 m/s | 171 W/m² | - |
| 1777615883 | 10° C | 50% | 1026.3 hPa | 0 mm | 0 m/s | 169 W/m² | - |
| 1777615822 | 10° C | 50% | 1026.2 hPa | 0 mm | 0 m/s | 167 W/m² | - |
| 1777615761 | 9.44° C | 51% | 1026.1 hPa | 0 mm | 0 m/s | 164 W/m² | - |
| 1777615700 | 8.89° C | 52% | 1026.3 hPa | 0 mm | 0 m/s | 163 W/m² | - |
* Rain latest hour (hover to see other rain measurements)
** Current wind speed in m/s (hover to see current wind gust speed)